Time,TemperatureF,DewpointF,PressureIn,WindDirection,WindDirectionDegrees,WindSpeedMPH,WindSpeedGustMPH,Humidity,HourlyPrecipIn,Conditions,Clouds,dailyrainin,SoftwareType,DateUTC
2013-10-22 00:04:00,42.0,35.0,30.08,NNE,32,0.0,0.6,78,0.00,,,0.00,TxWx,2013-10-22 05:04:00,
2013-10-22 00:09:00,41.7,36.0,30.08,SW,235,0.6,1.2,78,0.00,,,0.00,TxWx,2013-10-22 05:09:00,
2013-10-22 00:14:00,41.8,36.0,30.08,WSW,257,1.2,1.9,79,0.00,,,0.00,TxWx,2013-10-22 05:14:00,
2013-10-22 00:19:00,42.2,35.0,30.08,SW,235,1.2,5.6,77,0.00,,,0.00,TxWx,2013-10-22 05:19:00,
2013-10-22 00:24:00,42.5,36.0,30.08,SSW,212,1.2,3.1,76,0.00,,,0.00,TxWx,2013-10-22 05:24:00,
2013-10-22 00:30:00,42.8,36.0,30.07,NE,55,0.6,1.9,76,0.00,,,0.00,TxWx,2013-10-22 05:30:00,
2013-10-22 00:35:00,43.0,36.0,30.07,SW,235,1.9,1.9,76,0.00,,,0.00,TxWx,2013-10-22 05:35:00,
2013-10-22 00:40:00,43.2,35.0,30.07,SW,235,1.2,3.1,75,0.00,,,0.00,TxWx,2013-10-22 05:40:00,
2013-10-22 00:45:00,43.2,36.0,30.07,WNW,302,1.2,1.9,75,0.00,,,0.00,TxWx,2013-10-22 05:45:00,
2013-10-22 00:50:00,43.2,36.0,30.07,WNW,302,0.0,1.2,75,0.00,,,0.00,TxWx,2013-10-22 05:50:00,
2013-10-22 00:55:00,43.2,36.0,30.07,SSW,212,1.2,1.9,75,0.00,,,0.00,TxWx,2013-10-22 05:55:00,
2013-10-22 01:00:00,43.2,36.0,30.06,SSW,212,0.6,1.9,76,0.00,,,0.00,TxWx,2013-10-22 06:00:00,
2013-10-22 01:05:00,43.2,36.0,30.07,West,280,0.6,1.9,75,0.00,,,0.00,TxWx,2013-10-22 06:05:00,
2013-10-22 01:10:00,43.2,35.0,30.06,West,280,0.6,5.0,75,0.00,,,0.00,TxWx,2013-10-22 06:10:00,
2013-10-22 01:15:00,43.3,35.0,30.06,SW,235,1.2,2.5,75,0.00,,,0.00,TxWx,2013-10-22 06:15:00,
2013-10-22 01:20:00,43.5,35.0,30.06,WSW,257,0.6,2.5,74,0.00,,,0.00,TxWx,2013-10-22 06:20:00,
2013-10-22 01:25:00,43.7,36.0,30.07,WSW,257,3.1,8.7,74,0.00,,,0.00,TxWx,2013-10-22 06:25:00,
2013-10-22 01:30:00,44.1,36.0,30.07,SW,235,1.9,6.2,73,0.00,,,0.00,TxWx,2013-10-22 06:30:00,
2013-10-22 01:35:00,44.4,36.0,30.07,SSW,212,1.2,2.5,72,0.00,,,0.00,TxWx,2013-10-22 06:35:00,
2013-10-22 01:40:00,44.7,37.0,30.07,WSW,257,1.9,4.3,72,0.00,,,0.00,TxWx,2013-10-22 06:40:00,
2013-10-22 01:45:00,44.9,36.0,30.07,West,280,1.9,4.3,72,0.00,,,0.00,TxWx,2013-10-22 06:45:00,
2013-10-22 01:50:00,45.0,36.0,30.07,SW,235,2.5,6.2,72,0.00,,,0.00,TxWx,2013-10-22 06:50:00,
2013-10-22 01:55:00,45.1,36.0,30.07,SSE,167,1.2,5.6,72,0.00,,,0.00,TxWx,2013-10-22 06:55:00,
2013-10-22 02:00:00,45.2,36.0,30.07,ESE,122,1.9,6.8,72,0.00,,,0.00,TxWx,2013-10-22 07:00:00,
2013-10-22 02:06:00,45.2,36.0,30.07,South,190,1.2,5.0,71,0.00,,,0.00,TxWx,2013-10-22 07:06:00,
2013-10-22 02:11:00,45.3,36.0,30.07,South,190,1.2,3.7,72,0.00,,,0.00,TxWx,2013-10-22 07:11:00,
2013-10-22 02:16:00,45.3,37.0,30.07,SW,235,1.2,3.7,72,0.00,,,0.00,TxWx,2013-10-22 07:16:00,
2013-10-22 02:21:00,45.4,37.0,30.07,West,280,3.1,5.0,72,0.00,,,0.00,TxWx,2013-10-22 07:21:00,
2013-10-22 02:26:00,45.4,36.0,30.07,West,280,2.5,9.3,72,0.00,,,0.00,TxWx,2013-10-22 07:26:00,
2013-10-22 02:31:00,45.5,38.0,30.06,South,190,1.2,3.1,73,0.00,,,0.00,TxWx,2013-10-22 07:31:00,
2013-10-22 02:36:00,45.6,37.0,30.06,SSW,212,1.9,3.1,72,0.00,,,0.00,TxWx,2013-10-22 07:36:00,
2013-10-22 02:41:00,45.6,38.0,30.06,South,190,3.1,3.7,73,0.00,,,0.00,TxWx,2013-10-22 07:41:00,
2013-10-22 02:46:00,45.6,38.0,30.06,West,280,1.2,3.1,73,0.00,,,0.00,TxWx,2013-10-22 07:46:00,
2013-10-22 02:51:00,45.7,38.0,30.05,WSW,257,1.2,3.7,73,0.00,,,0.00,TxWx,2013-10-22 07:51:00,
2013-10-22 02:56:00,45.7,38.0,30.05,WSW,257,1.9,3.7,73,0.00,,,0.00,TxWx,2013-10-22 07:56:00,
2013-10-22 03:01:00,45.9,38.0,30.05,South,190,3.1,3.1,73,0.00,,,0.00,TxWx,2013-10-22 08:01:00,
2013-10-22 03:06:00,46.0,37.0,30.05,SW,235,3.7,5.6,72,0.00,,,0.00,TxWx,2013-10-22 08:06:00,
2013-10-22 03:11:00,46.1,37.0,30.05,SW,235,2.5,2.5,72,0.00,,,0.00,TxWx,2013-10-22 08:11:00,
2013-10-22 03:16:00,46.2,37.0,30.05,West,280,1.9,9.3,72,0.00,,,0.00,TxWx,2013-10-22 08:16:00,
2013-10-22 03:21:00,46.3,37.0,30.04,WSW,257,3.1,3.7,72,0.00,,,0.00,TxWx,2013-10-22 08:21:00,
2013-10-22 03:26:00,46.3,37.0,30.04,WSW,257,1.2,6.2,72,0.00,,,0.00,TxWx,2013-10-22 08:26:00,
2013-10-22 03:31:00,46.1,37.0,30.04,South,190,3.7,6.8,72,0.00,,,0.00,TxWx,2013-10-22 08:31:00,
2013-10-22 03:36:00,46.1,37.0,30.04,SW,235,2.5,8.0,72,0.00,,,0.00,TxWx,2013-10-22 08:36:00,
2013-10-22 03:41:00,46.1,38.0,30.04,WSW,257,3.1,5.0,73,0.00,,,0.00,TxWx,2013-10-22 08:41:00,
2013-10-22 03:46:00,45.9,38.0,30.03,SW,235,1.9,6.2,73,0.00,,,0.00,TxWx,2013-10-22 08:46:00,
2013-10-22 03:51:00,45.8,38.0,30.03,WSW,257,3.1,3.1,73,0.00,,,0.00,TxWx,2013-10-22 08:51:00,
2013-10-22 03:56:00,45.7,38.0,30.03,South,190,1.2,3.7,73,0.00,,,0.00,TxWx,2013-10-22 08:56:00,
2013-10-22 04:01:00,45.5,38.0,30.03,WSW,257,1.2,3.1,74,0.00,,,0.00,TxWx,2013-10-22 09:01:00,
2013-10-22 04:06:00,45.2,37.0,30.02,SSW,212,1.2,3.1,75,0.00,,,0.00,TxWx,2013-10-22 09:06:00,
2013-10-22 04:11:00,45.1,37.0,30.02,WSW,257,1.2,5.6,75,0.00,,,0.00,TxWx,2013-10-22 09:11:00,
2013-10-22 04:17:00,44.9,38.0,30.02,NW,325,1.9,4.3,75,0.00,,,0.00,TxWx,2013-10-22 09:17:00,
2013-10-22 04:22:00,44.9,38.0,30.02,SSW,212,4.3,4.3,76,0.00,,,0.00,TxWx,2013-10-22 09:22:00,
2013-10-22 04:27:00,44.8,38.0,30.02,West,280,0.6,1.9,76,0.00,,,0.00,TxWx,2013-10-22 09:27:00,
2013-10-22 04:32:00,44.7,38.0,30.02,SSW,212,1.2,2.5,76,0.00,,,0.00,TxWx,2013-10-22 09:32:00,
2013-10-22 04:37:00,44.6,38.0,30.01,WSW,257,1.2,1.9,76,0.00,,,0.00,TxWx,2013-10-22 09:37:00,
2013-10-22 04:42:00,44.5,37.0,30.02,West,280,1.2,1.9,77,0.00,,,0.00,TxWx,2013-10-22 09:42:00,
2013-10-22 04:47:00,44.3,37.0,30.01,West,280,1.2,3.1,78,0.00,,,0.00,TxWx,2013-10-22 09:47:00,
2013-10-22 04:52:00,44.2,37.0,30.01,West,280,1.2,2.5,78,0.00,,,0.00,TxWx,2013-10-22 09:52:00,
2013-10-22 04:57:00,44.1,38.0,30.01,SE,145,0.6,1.9,79,0.00,,,0.00,TxWx,2013-10-22 09:57:00,
2013-10-22 05:02:00,44.0,38.0,30.00,SW,235,1.2,1.9,79,0.00,,,0.00,TxWx,2013-10-22 10:02:00,
2013-10-22 05:07:00,44.0,38.0,30.00,West,280,1.2,1.9,79,0.00,,,0.00,TxWx,2013-10-22 10:07:00,
2013-10-22 05:12:00,43.9,38.0,30.00,WSW,257,0.6,5.0,79,0.00,,,0.00,TxWx,2013-10-22 10:12:00,
2013-10-22 05:17:00,43.9,38.0,29.99,South,190,4.3,4.3,79,0.00,,,0.00,TxWx,2013-10-22 10:17:00,
2013-10-22 05:22:00,44.0,38.0,29.99,SW,235,1.9,1.9,79,0.00,,,0.00,TxWx,2013-10-22 10:22:00,
2013-10-22 05:27:00,44.1,38.0,29.99,WSW,257,1.2,1.2,80,0.00,,,0.00,TxWx,2013-10-22 10:27:00,
2013-10-22 05:32:00,44.1,38.0,29.99,SW,235,0.6,1.9,80,0.00,,,0.00,TxWx,2013-10-22 10:32:00,
2013-10-22 05:37:00,44.1,38.0,29.99,NNW,347,0.0,5.0,80,0.00,,,0.00,TxWx,2013-10-22 10:37:00,
2013-10-22 05:42:00,44.2,38.0,29.99,WSW,257,0.6,1.9,80,0.00,,,0.00,TxWx,2013-10-22 10:42:00,
2013-10-22 05:47:00,44.4,38.0,29.99,SW,235,2.5,3.7,80,0.00,,,0.00,TxWx,2013-10-22 10:47:00,
2013-10-22 05:52:00,44.6,39.0,30.00,WNW,302,1.2,1.9,80,0.00,,,0.00,TxWx,2013-10-22 10:52:00,
2013-10-22 05:57:00,44.8,39.0,29.99,SSW,212,0.6,2.5,80,0.00,,,0.00,TxWx,2013-10-22 10:57:00,
2013-10-22 06:02:00,44.9,39.0,30.00,WSW,257,1.9,3.1,80,0.00,,,0.00,TxWx,2013-10-22 11:02:00,
2013-10-22 06:07:00,45.0,39.0,30.00,West,280,1.2,1.9,79,0.00,,,0.00,TxWx,2013-10-22 11:07:00,
2013-10-22 06:12:00,45.1,39.0,30.00,WSW,257,2.5,5.6,79,0.00,,,0.00,TxWx,2013-10-22 11:12:00,
2013-10-22 06:17:00,45.3,39.0,30.00,West,280,2.5,3.7,80,0.00,,,0.00,TxWx,2013-10-22 11:17:00,
2013-10-22 06:22:00,45.3,39.0,30.00,West,280,1.2,3.1,80,0.00,,,0.00,TxWx,2013-10-22 11:22:00,
2013-10-22 06:27:00,45.3,39.0,30.00,SSW,212,2.5,5.0,80,0.00,,,0.00,TxWx,2013-10-22 11:27:00,
2013-10-22 06:32:00,45.4,39.0,29.99,West,280,4.3,5.0,80,0.00,,,0.00,TxWx,2013-10-22 11:32:00,
2013-10-22 06:37:00,45.5,39.0,29.99,West,280,0.6,1.2,81,0.00,,,0.00,TxWx,2013-10-22 11:37:00,
2013-10-22 06:42:00,45.5,40.0,29.99,West,280,2.5,2.5,80,0.00,,,0.00,TxWx,2013-10-22 11:42:00,
2013-10-22 06:48:00,45.6,40.0,29.99,West,280,1.9,5.6,80,0.00,,,0.00,TxWx,2013-10-22 11:48:00,
2013-10-22 06:53:00,45.8,40.0,29.98,NW,325,0.6,4.3,80,0.00,,,0.00,TxWx,2013-10-22 11:53:00,
2013-10-22 06:58:00,46.0,40.0,29.98,SW,235,2.5,7.4,79,0.00,,,0.00,TxWx,2013-10-22 11:58:00,
2013-10-22 07:03:00,46.2,40.0,29.98,WSW,257,5.0,5.0,79,0.00,,,0.00,TxWx,2013-10-22 12:03:00,
2013-10-22 07:08:00,46.4,40.0,29.98,SW,235,1.9,3.7,78,0.00,,,0.00,TxWx,2013-10-22 12:08:00,
2013-10-22 07:13:00,46.4,39.0,29.98,SW,235,3.1,3.1,78,0.00,,,0.00,TxWx,2013-10-22 12:13:00,
2013-10-22 07:18:00,46.4,39.0,29.98,West,280,3.7,5.0,77,0.00,,,0.00,TxWx,2013-10-22 12:18:00,
2013-10-22 07:23:00,46.5,40.0,29.98,South,190,1.9,3.1,78,0.00,,,0.00,TxWx,2013-10-22 12:23:00,
2013-10-22 07:28:00,46.5,40.0,29.98,NE,55,1.2,2.5,78,0.00,,,0.00,TxWx,2013-10-22 12:28:00,
2013-10-22 07:33:00,46.3,39.0,29.98,SW,235,1.9,4.3,78,0.00,,,0.00,TxWx,2013-10-22 12:33:00,
2013-10-22 07:38:00,46.4,40.0,29.98,SW,235,2.5,4.3,78,0.00,,,0.00,TxWx,2013-10-22 12:38:00,
2013-10-22 07:43:00,46.4,40.0,29.98,NW,325,1.2,3.1,78,0.00,,,0.00,TxWx,2013-10-22 12:43:00,
2013-10-22 07:48:00,46.4,40.0,29.97,WSW,257,3.1,3.1,78,0.00,,,0.00,TxWx,2013-10-22 12:48:00,
2013-10-22 07:53:00,46.3,39.0,29.97,WSW,257,1.2,2.5,78,0.00,,,0.00,TxWx,2013-10-22 12:53:00,
2013-10-22 07:58:00,46.2,40.0,29.97,WSW,257,1.9,2.5,79,0.00,,,0.00,TxWx,2013-10-22 12:58:00,
2013-10-22 08:03:00,46.2,40.0,29.97,WNW,302,0.6,1.2,79,0.00,,,0.00,TxWx,2013-10-22 13:03:00,
2013-10-22 08:08:00,46.2,40.0,29.97,South,190,0.6,2.5,79,0.00,,,0.00,TxWx,2013-10-22 13:08:00,
2013-10-22 08:13:00,46.1,40.0,29.97,WSW,257,2.5,3.7,79,0.00,,,0.00,TxWx,2013-10-22 13:13:00,
2013-10-22 08:18:00,46.1,40.0,29.97,WSW,257,1.9,2.5,79,0.00,,,0.00,TxWx,2013-10-22 13:18:00,
2013-10-22 08:23:00,46.2,40.0,29.98,WNW,302,1.9,3.1,79,0.00,,,0.00,TxWx,2013-10-22 13:23:00,
2013-10-22 08:28:00,46.3,40.0,29.98,WSW,257,1.9,1.9,80,0.00,,,0.00,TxWx,2013-10-22 13:28:00,
2013-10-22 08:33:00,46.3,40.0,29.98,SW,235,1.9,3.1,80,0.00,,,0.00,TxWx,2013-10-22 13:33:00,
2013-10-22 08:38:00,46.3,40.0,29.98,WNW,302,2.5,5.6,80,0.00,,,0.00,TxWx,2013-10-22 13:38:00,
2013-10-22 08:43:00,46.2,40.0,29.98,WSW,257,1.2,3.1,80,0.00,,,0.00,TxWx,2013-10-22 13:43:00,
2013-10-22 08:48:00,46.2,40.0,29.98,WNW,302,1.2,1.2,81,0.00,,,0.00,TxWx,2013-10-22 13:48:00,
2013-10-22 08:53:00,46.1,40.0,29.98,WSW,257,1.9,3.1,81,0.00,,,0.00,TxWx,2013-10-22 13:53:00,
2013-10-22 08:58:00,46.1,40.0,29.98,SW,235,1.2,3.1,81,0.00,,,0.00,TxWx,2013-10-22 13:58:00,
2013-10-22 09:03:00,46.2,40.0,29.98,WSW,257,3.1,4.3,81,0.00,,,0.00,TxWx,2013-10-22 14:03:00,
2013-10-22 09:08:00,46.4,40.0,29.98,SW,235,2.5,4.3,80,0.00,,,0.00,TxWx,2013-10-22 14:08:00,
2013-10-22 09:13:00,46.8,41.0,29.98,WNW,302,1.9,3.7,81,0.00,,,0.00,TxWx,2013-10-22 14:13:00,
2013-10-22 09:18:00,47.2,41.0,29.98,WNW,302,1.2,1.9,80,0.00,,,0.00,TxWx,2013-10-22 14:18:00,
2013-10-22 09:24:00,47.7,42.0,29.98,WSW,257,3.1,5.0,80,0.00,,,0.00,TxWx,2013-10-22 14:24:00,
2013-10-22 09:29:00,48.3,42.0,29.98,WSW,257,5.0,6.2,79,0.00,,,0.00,TxWx,2013-10-22 14:29:00,
2013-10-22 09:34:00,48.7,42.0,29.99,WNW,302,1.2,3.1,78,0.00,,,0.00,TxWx,2013-10-22 14:34:00,
2013-10-22 09:39:00,49.4,42.0,29.99,WSW,257,1.9,6.8,77,0.00,,,0.00,TxWx,2013-10-22 14:39:00,
2013-10-22 09:44:00,50.2,43.0,29.99,WNW,302,7.4,8.0,76,0.00,,,0.00,TxWx,2013-10-22 14:44:00,
2013-10-22 09:49:00,50.8,43.0,29.99,SW,235,4.3,4.3,74,0.00,,,0.00,TxWx,2013-10-22 14:49:00,
2013-10-22 09:54:00,51.2,43.0,29.99,SSW,212,3.1,3.7,73,0.00,,,0.00,TxWx,2013-10-22 14:54:00,
2013-10-22 09:59:00,51.6,43.0,29.99,NW,325,2.5,6.2,73,0.00,,,0.00,TxWx,2013-10-22 14:59:00,
2013-10-22 10:04:00,52.1,43.0,29.99,WSW,257,1.9,3.7,73,0.00,,,0.00,TxWx,2013-10-22 15:04:00,
2013-10-22 10:09:00,52.7,44.0,29.99,West,280,3.1,5.0,71,0.00,,,0.00,TxWx,2013-10-22 15:09:00,
2013-10-22 10:14:00,53.1,44.0,29.98,WSW,257,4.3,6.8,71,0.00,,,0.00,TxWx,2013-10-22 15:14:00,
2013-10-22 10:19:00,53.5,44.0,29.98,SW,235,5.0,7.4,70,0.00,,,0.00,TxWx,2013-10-22 15:19:00,
2013-10-22 10:24:00,53.8,44.0,29.98,WSW,257,3.1,4.3,69,0.00,,,0.00,TxWx,2013-10-22 15:24:00,
2013-10-22 10:29:00,54.1,44.0,29.99,SW,235,1.9,1.9,70,0.00,,,0.00,TxWx,2013-10-22 15:29:00,
2013-10-22 10:34:00,54.3,44.0,29.98,WSW,257,4.3,10.5,69,0.00,,,0.00,TxWx,2013-10-22 15:34:00,
2013-10-22 10:39:00,54.4,44.0,29.98,WNW,302,1.9,5.6,69,0.00,,,0.00,TxWx,2013-10-22 15:39:00,
2013-10-22 10:44:00,54.6,45.0,29.99,NW,325,3.1,5.0,69,0.00,,,0.00,TxWx,2013-10-22 15:44:00,
2013-10-22 10:49:00,54.7,45.0,29.99,WSW,257,1.2,5.0,70,0.00,,,0.00,TxWx,2013-10-22 15:49:00,
2013-10-22 10:54:00,54.9,45.0,29.98,North,10,0.6,5.6,68,0.00,,,0.00,TxWx,2013-10-22 15:54:00,
2013-10-22 10:59:00,55.2,45.0,29.99,WNW,302,3.1,5.6,69,0.00,,,0.00,TxWx,2013-10-22 15:59:00,
2013-10-22 11:04:00,55.4,44.0,29.99,West,280,5.0,9.3,68,0.00,,,0.00,TxWx,2013-10-22 16:04:00,
2013-10-22 11:09:00,55.4,44.0,29.99,West,280,8.0,9.3,67,0.00,,,0.00,TxWx,2013-10-22 16:09:00,
2013-10-22 11:14:00,55.4,44.0,29.99,WNW,302,8.7,10.5,67,0.00,,,0.00,TxWx,2013-10-22 16:14:00,
2013-10-22 11:19:00,55.5,44.0,29.99,NW,325,5.6,6.2,66,0.00,,,0.00,TxWx,2013-10-22 16:19:00,
2013-10-22 11:24:00,55.5,44.0,29.99,West,280,3.7,6.8,66,0.00,,,0.00,TxWx,2013-10-22 16:24:00,
2013-10-22 11:29:00,55.7,45.0,29.99,West,280,3.1,4.3,67,0.00,,,0.00,TxWx,2013-10-22 16:29:00,
2013-10-22 11:34:00,55.4,44.0,29.99,NNW,347,2.5,6.2,66,0.00,,,0.00,TxWx,2013-10-22 16:34:00,
2013-10-22 11:39:00,55.1,44.0,29.99,WSW,257,5.0,8.0,67,0.00,,,0.00,TxWx,2013-10-22 16:39:00,
2013-10-22 11:44:00,55.3,44.0,29.99,NW,325,4.3,10.5,68,0.00,,,0.00,TxWx,2013-10-22 16:44:00,
2013-10-22 11:49:00,55.3,44.0,30.00,WNW,302,8.7,8.7,68,0.00,,,0.00,TxWx,2013-10-22 16:49:00,
2013-10-22 11:55:00,55.5,46.0,30.00,WNW,302,3.7,9.9,68,0.00,,,0.00,TxWx,2013-10-22 16:55:00,
2013-10-22 12:00:00,55.7,46.0,30.00,South,190,8.0,9.3,68,0.00,,,0.00,TxWx,2013-10-22 17:00:00,
2013-10-22 12:05:00,56.0,46.0,30.00,West,280,8.0,10.5,69,0.00,,,0.00,TxWx,2013-10-22 17:05:00,
2013-10-22 12:10:00,56.1,45.0,30.00,WNW,302,5.6,16.1,67,0.00,,,0.00,TxWx,2013-10-22 17:10:00,
2013-10-22 12:15:00,56.3,45.0,30.00,SSW,212,1.9,4.3,68,0.00,,,0.00,TxWx,2013-10-22 17:15:00,
2013-10-22 12:20:00,56.3,45.0,30.00,WNW,302,9.9,9.9,67,0.00,,,0.00,TxWx,2013-10-22 17:20:00,
2013-10-22 12:25:00,56.2,45.0,30.00,West,280,1.2,5.0,67,0.00,,,0.00,TxWx,2013-10-22 17:25:00,
2013-10-22 12:30:00,56.3,45.0,30.01,WSW,257,2.5,4.3,67,0.00,,,0.00,TxWx,2013-10-22 17:30:00,
2013-10-22 12:35:00,56.3,45.0,30.01,WSW,257,3.1,5.0,67,0.00,,,0.00,TxWx,2013-10-22 17:35:00,
2013-10-22 12:40:00,56.3,45.0,30.01,WSW,257,1.9,9.3,67,0.00,,,0.00,TxWx,2013-10-22 17:40:00,
2013-10-22 12:45:00,56.3,45.0,30.00,NNW,347,5.6,9.3,67,0.00,,,0.00,TxWx,2013-10-22 17:45:00,
2013-10-22 12:50:00,56.7,46.0,30.00,WSW,257,8.0,8.0,67,0.00,,,0.00,TxWx,2013-10-22 17:50:00,
2013-10-22 12:55:00,57.1,46.0,30.00,WSW,257,5.6,6.8,66,0.00,,,0.00,TxWx,2013-10-22 17:55:00,
2013-10-22 13:00:00,57.4,45.0,30.00,WNW,302,2.5,9.3,64,0.00,,,0.00,TxWx,2013-10-22 18:00:00,
2013-10-22 13:05:00,57.7,46.0,30.00,WNW,302,5.0,11.1,64,0.00,,,0.00,TxWx,2013-10-22 18:05:00,
2013-10-22 13:10:00,57.6,44.0,30.00,NNW,347,3.1,13.6,61,0.00,,,0.00,TxWx,2013-10-22 18:10:00,
2013-10-22 13:15:00,57.8,45.0,30.00,WSW,257,3.1,9.9,62,0.00,,,0.00,TxWx,2013-10-22 18:15:00,
2013-10-22 13:20:00,57.6,45.0,30.00,NW,325,3.1,6.2,62,0.00,,,0.00,TxWx,2013-10-22 18:20:00,
2013-10-22 13:25:00,57.2,43.0,30.00,East,100,1.9,11.8,61,0.00,,,0.00,TxWx,2013-10-22 18:25:00,
2013-10-22 13:30:00,57.2,43.0,29.99,NNW,347,3.1,12.4,61,0.00,,,0.00,TxWx,2013-10-22 18:30:00,
2013-10-22 13:35:00,58.0,44.0,29.99,NW,325,6.8,9.3,60,0.00,,,0.00,TxWx,2013-10-22 18:35:00,
2013-10-22 13:40:00,58.1,43.0,29.99,WSW,257,9.3,14.2,58,0.00,,,0.00,TxWx,2013-10-22 18:40:00,
2013-10-22 13:45:00,58.1,44.0,29.99,WNW,302,5.0,8.7,60,0.00,,,0.00,TxWx,2013-10-22 18:45:00,
2013-10-22 13:50:00,58.5,44.0,29.99,SW,235,11.1,11.1,59,0.00,,,0.00,TxWx,2013-10-22 18:50:00,
2013-10-22 13:55:00,57.9,43.0,29.99,West,280,3.1,7.4,58,0.00,,,0.00,TxWx,2013-10-22 18:55:00,
2013-10-22 14:00:00,58.1,43.0,29.99,West,280,6.8,9.9,58,0.00,,,0.00,TxWx,2013-10-22 19:00:00,
2013-10-22 14:05:00,58.3,43.0,29.98,NNW,347,5.0,6.2,57,0.00,,,0.00,TxWx,2013-10-22 19:05:00,
2013-10-22 14:10:00,58.4,42.0,29.98,WSW,257,5.0,12.4,56,0.00,,,0.00,TxWx,2013-10-22 19:10:00,
2013-10-22 14:15:00,58.5,42.0,29.98,WNW,302,2.5,11.1,55,0.00,,,0.00,TxWx,2013-10-22 19:15:00,
2013-10-22 14:21:00,58.6,43.0,29.98,WNW,302,4.3,9.9,56,0.00,,,0.00,TxWx,2013-10-22 19:21:00,
2013-10-22 14:26:00,59.0,43.0,29.98,West,280,3.1,5.0,55,0.00,,,0.00,TxWx,2013-10-22 19:26:00,
2013-10-22 14:31:00,59.0,43.0,29.98,ENE,77,1.9,5.0,55,0.00,,,0.00,TxWx,2013-10-22 19:31:00,
2013-10-22 14:36:00,59.3,43.0,29.97,NW,325,3.1,8.7,55,0.00,,,0.00,TxWx,2013-10-22 19:36:00,
2013-10-22 14:41:00,59.2,43.0,29.97,North,10,1.9,9.9,55,0.00,,,0.00,TxWx,2013-10-22 19:41:00,
2013-10-22 14:46:00,58.9,42.0,29.97,NNW,347,5.0,13.0,54,0.00,,,0.00,TxWx,2013-10-22 19:46:00,
2013-10-22 14:51:00,58.5,41.0,29.97,WNW,302,6.2,11.1,54,0.00,,,0.00,TxWx,2013-10-22 19:51:00,
2013-10-22 14:56:00,58.6,42.0,29.97,WNW,302,5.6,15.5,53,0.00,,,0.00,TxWx,2013-10-22 19:56:00,
2013-10-22 15:01:00,58.3,41.0,29.97,NW,325,2.5,7.4,53,0.00,,,0.00,TxWx,2013-10-22 20:01:00,
2013-10-22 15:06:00,58.5,42.0,29.97,NNW,347,2.5,6.2,53,0.00,,,0.00,TxWx,2013-10-22 20:06:00,
2013-10-22 15:11:00,58.8,41.0,29.97,ESE,122,1.9,12.4,51,0.00,,,0.00,TxWx,2013-10-22 20:11:00,
2013-10-22 15:16:00,58.9,42.0,29.97,WNW,302,4.3,5.6,53,0.00,,,0.00,TxWx,2013-10-22 20:16:00,
2013-10-22 15:21:00,58.6,42.0,29.98,SW,235,1.9,6.2,53,0.00,,,0.00,TxWx,2013-10-22 20:21:00,
2013-10-22 15:26:00,58.1,41.0,29.98,NE,55,4.3,8.7,53,0.00,,,0.00,TxWx,2013-10-22 20:26:00,
2013-10-22 15:31:00,58.0,41.0,29.98,NNW,347,3.7,5.6,54,0.00,,,0.00,TxWx,2013-10-22 20:31:00,
2013-10-22 15:36:00,57.4,40.0,29.98,NNE,32,3.1,6.2,54,0.00,,,0.00,TxWx,2013-10-22 20:36:00,
2013-10-22 15:41:00,57.1,41.0,29.99,East,100,3.1,9.3,56,0.00,,,0.00,TxWx,2013-10-22 20:41:00,
2013-10-22 15:46:00,57.1,41.0,29.99,NE,55,5.0,8.0,56,0.00,,,0.00,TxWx,2013-10-22 20:46:00,
2013-10-22 15:51:00,57.1,41.0,30.00,ENE,77,3.1,6.8,56,0.00,,,0.00,TxWx,2013-10-22 20:51:00,
2013-10-22 15:56:00,57.3,41.0,30.00,NW,325,1.9,5.6,56,0.00,,,0.00,TxWx,2013-10-22 20:56:00,
2013-10-22 16:01:00,57.5,40.0,30.00,NNW,347,3.7,9.9,54,0.00,,,0.00,TxWx,2013-10-22 21:01:00,
2013-10-22 16:07:00,57.1,40.0,30.01,ENE,77,4.3,11.1,53,0.00,,,0.00,TxWx,2013-10-22 21:07:00,
2013-10-22 16:12:00,56.8,40.0,30.01,ENE,77,3.7,6.8,53,0.00,,,0.00,TxWx,2013-10-22 21:12:00,
2013-10-22 16:17:00,56.4,39.0,30.01,WSW,257,4.3,9.3,53,0.00,,,0.00,TxWx,2013-10-22 21:17:00,
2013-10-22 16:22:00,56.4,39.0,30.01,North,10,3.7,4.3,54,0.00,,,0.00,TxWx,2013-10-22 21:22:00,
2013-10-22 16:27:00,56.5,39.0,30.01,East,100,3.1,4.3,54,0.00,,,0.00,TxWx,2013-10-22 21:27:00,
2013-10-22 16:32:00,56.1,39.0,30.02,NW,325,6.8,11.1,53,0.00,,,0.00,TxWx,2013-10-22 21:32:00,
2013-10-22 16:37:00,55.8,38.0,30.01,West,280,3.1,7.4,52,0.00,,,0.00,TxWx,2013-10-22 21:37:00,
2013-10-22 16:42:00,55.8,39.0,30.02,West,280,7.4,14.2,52,0.00,,,0.00,TxWx,2013-10-22 21:42:00,
2013-10-22 16:47:00,55.9,39.0,30.02,East,100,1.9,4.3,53,0.00,,,0.00,TxWx,2013-10-22 21:47:00,
2013-10-22 16:52:00,55.7,39.0,30.02,West,280,1.9,5.6,53,0.00,,,0.00,TxWx,2013-10-22 21:52:00,
2013-10-22 16:57:00,55.4,38.0,30.03,NE,55,4.3,6.2,54,0.00,,,0.00,TxWx,2013-10-22 21:57:00,
2013-10-22 17:02:00,55.3,39.0,30.03,NE,55,3.7,6.2,54,0.00,,,0.00,TxWx,2013-10-22 22:02:00,
2013-10-22 17:07:00,55.1,39.0,30.03,West,280,2.5,4.3,55,0.00,,,0.00,TxWx,2013-10-22 22:07:00,
2013-10-22 17:12:00,55.0,39.0,30.03,ENE,77,3.1,4.3,55,0.00,,,0.00,TxWx,2013-10-22 22:12:00,
2013-10-22 17:17:00,54.8,39.0,30.03,ENE,77,3.1,6.2,55,0.00,,,0.00,TxWx,2013-10-22 22:17:00,
2013-10-22 17:22:00,54.7,39.0,30.04,WSW,257,1.9,7.4,55,0.00,,,0.00,TxWx,2013-10-22 22:22:00,
2013-10-22 17:27:00,54.8,39.0,30.04,NNW,347,9.3,9.3,54,0.00,,,0.00,TxWx,2013-10-22 22:27:00,
2013-10-22 17:32:00,54.5,37.0,30.04,NNW,347,8.0,9.3,51,0.00,,,0.00,TxWx,2013-10-22 22:32:00,
2013-10-22 17:37:00,54.3,36.0,30.04,NW,325,6.2,13.0,51,0.00,,,0.00,TxWx,2013-10-22 22:37:00,
2013-10-22 17:42:00,54.2,37.0,30.04,West,280,9.9,11.8,52,0.00,,,0.00,TxWx,2013-10-22 22:42:00,
2013-10-22 17:47:00,54.0,37.0,30.04,WSW,257,3.1,8.0,52,0.00,,,0.00,TxWx,2013-10-22 22:47:00,
2013-10-22 17:52:00,54.0,37.0,30.04,ENE,77,3.1,6.2,53,0.00,,,0.00,TxWx,2013-10-22 22:52:00,
2013-10-22 17:57:00,53.9,37.0,30.04,East,100,1.9,2.5,54,0.00,,,0.00,TxWx,2013-10-22 22:57:00,
2013-10-22 18:02:00,53.6,37.0,30.04,NE,55,1.2,6.8,54,0.00,,,0.00,TxWx,2013-10-22 23:02:00,
2013-10-22 18:08:00,53.4,37.0,30.05,NNE,32,0.6,4.3,54,0.00,,,0.00,TxWx,2013-10-22 23:08:00,
2013-10-22 18:13:00,53.1,36.0,30.05,NNW,347,4.3,5.0,53,0.00,,,0.00,TxWx,2013-10-22 23:13:00,
2013-10-22 18:18:00,53.0,37.0,30.05,NE,55,0.6,2.5,54,0.00,,,0.00,TxWx,2013-10-22 23:18:00,
2013-10-22 18:23:00,52.7,37.0,30.05,North,10,1.2,3.1,54,0.00,,,0.00,TxWx,2013-10-22 23:23:00,
2013-10-22 18:28:00,52.4,36.0,30.05,NNW,347,0.6,3.7,55,0.00,,,0.00,TxWx,2013-10-22 23:28:00,
2013-10-22 18:33:00,52.0,36.0,30.06,NNE,32,1.9,8.7,55,0.00,,,0.00,TxWx,2013-10-22 23:33:00,
2013-10-22 18:38:00,51.9,37.0,30.06,NE,55,3.7,5.0,56,0.00,,,0.00,TxWx,2013-10-22 23:38:00,
2013-10-22 18:43:00,51.7,37.0,30.07,North,10,0.6,2.5,56,0.00,,,0.00,TxWx,2013-10-22 23:43:00,
2013-10-22 18:48:00,51.3,36.0,30.07,West,280,2.5,3.1,56,0.00,,,0.00,TxWx,2013-10-22 23:48:00,
2013-10-22 18:53:00,51.1,36.0,30.07,NNW,347,1.2,1.9,56,0.00,,,0.00,TxWx,2013-10-22 23:53:00,
2013-10-22 18:58:00,50.9,36.0,30.07,NNE,32,1.9,6.2,57,0.00,,,0.00,TxWx,2013-10-22 23:58:00,
2013-10-22 19:03:00,50.8,36.0,30.07,West,280,1.2,2.5,57,0.00,,,0.00,TxWx,2013-10-23 00:03:00,
2013-10-22 19:08:00,50.6,37.0,30.08,North,10,1.2,1.2,58,0.00,,,0.00,TxWx,2013-10-23 00:08:00,
2013-10-22 19:13:00,50.3,36.0,30.08,West,280,0.6,2.5,59,0.00,,,0.00,TxWx,2013-10-23 00:13:00,
2013-10-22 19:18:00,50.0,36.0,30.08,NNW,347,1.2,6.8,60,0.00,,,0.00,TxWx,2013-10-23 00:18:00,
2013-10-22 19:23:00,49.8,36.0,30.09,NNW,347,3.1,5.6,60,0.00,,,0.00,TxWx,2013-10-23 00:23:00,
2013-10-22 19:28:00,49.6,36.0,30.09,West,280,1.9,3.1,60,0.00,,,0.00,TxWx,2013-10-23 00:28:00,
2013-10-22 19:33:00,49.5,36.0,30.09,NNW,347,1.9,3.7,61,0.00,,,0.00,TxWx,2013-10-23 00:33:00,
2013-10-22 19:38:00,49.3,36.0,30.09,NNW,347,1.2,1.9,60,0.00,,,0.00,TxWx,2013-10-23 00:38:00,
2013-10-22 19:43:00,49.1,36.0,30.09,NNE,32,1.2,3.1,61,0.00,,,0.00,TxWx,2013-10-23 00:43:00,
2013-10-22 19:48:00,48.9,36.0,30.09,SSW,212,0.6,1.9,61,0.00,,,0.00,TxWx,2013-10-23 00:48:00,
2013-10-22 19:53:00,48.7,36.0,30.10,NE,55,0.6,2.5,60,0.00,,,0.00,TxWx,2013-10-23 00:53:00,
2013-10-22 19:59:00,48.6,36.0,30.10,ENE,77,0.0,1.9,61,0.00,,,0.00,TxWx,2013-10-23 00:59:00,
2013-10-22 20:04:00,48.4,35.0,30.10,WNW,302,3.7,3.7,61,0.00,,,0.00,TxWx,2013-10-23 01:04:00,
2013-10-22 20:09:00,48.3,35.0,30.10,North,10,2.5,4.3,61,0.00,,,0.00,TxWx,2013-10-23 01:09:00,
2013-10-22 20:14:00,48.2,35.0,30.10,NE,55,2.5,3.1,61,0.00,,,0.00,TxWx,2013-10-23 01:14:00,
2013-10-22 20:19:00,48.0,36.0,30.10,ENE,77,1.2,1.9,63,0.00,,,0.00,TxWx,2013-10-23 01:19:00,
2013-10-22 20:24:00,47.7,36.0,30.10,WSW,257,1.9,5.0,63,0.00,,,0.00,TxWx,2013-10-23 01:24:00,
2013-10-22 20:29:00,47.5,35.0,30.10,East,100,2.5,2.5,64,0.00,,,0.00,TxWx,2013-10-23 01:29:00,
2013-10-22 20:34:00,47.3,35.0,30.10,NE,55,1.2,3.7,64,0.00,,,0.00,TxWx,2013-10-23 01:34:00,
2013-10-22 20:39:00,47.1,36.0,30.10,ENE,77,0.6,5.6,66,0.00,,,0.00,TxWx,2013-10-23 01:39:00,
2013-10-22 20:44:00,46.7,36.0,30.10,NNW,347,1.2,3.7,66,0.00,,,0.00,TxWx,2013-10-23 01:44:00,
2013-10-22 20:49:00,46.7,37.0,30.11,WNW,302,1.2,3.7,67,0.00,,,0.00,TxWx,2013-10-23 01:49:00,
2013-10-22 20:54:00,46.5,37.0,30.11,ENE,77,1.2,2.5,68,0.00,,,0.00,TxWx,2013-10-23 01:54:00,
2013-10-22 20:59:00,46.3,36.0,30.11,ENE,77,0.6,2.5,69,0.00,,,0.00,TxWx,2013-10-23 01:59:00,
2013-10-22 21:04:00,46.1,36.0,30.11,NE,55,0.6,1.9,69,0.00,,,0.00,TxWx,2013-10-23 02:04:00,
2013-10-22 21:09:00,46.0,36.0,30.11,NE,55,1.9,3.1,69,0.00,,,0.00,TxWx,2013-10-23 02:09:00,
2013-10-22 21:14:00,45.7,37.0,30.11,ENE,77,2.5,5.6,70,0.00,,,0.00,TxWx,2013-10-23 02:14:00,
2013-10-22 21:19:00,45.6,37.0,30.11,ENE,77,2.5,6.2,71,0.00,,,0.00,TxWx,2013-10-23 02:19:00,
2013-10-22 21:24:00,45.2,36.0,30.11,ENE,77,2.5,7.4,71,0.00,,,0.00,TxWx,2013-10-23 02:24:00,
2013-10-22 21:30:00,45.0,36.0,30.12,ENE,77,2.5,4.3,71,0.00,,,0.00,TxWx,2013-10-23 02:30:00,
2013-10-22 21:35:00,44.7,36.0,30.12,ENE,77,3.1,6.2,71,0.00,,,0.00,TxWx,2013-10-23 02:35:00,
2013-10-22 21:40:00,44.4,35.0,30.13,WNW,302,1.2,3.7,72,0.00,,,0.00,TxWx,2013-10-23 02:40:00,
2013-10-22 21:45:00,44.2,36.0,30.13,NE,55,2.5,5.0,72,0.00,,,0.00,TxWx,2013-10-23 02:45:00,
2013-10-22 21:50:00,44.0,35.0,30.13,East,100,1.2,3.1,71,0.00,,,0.00,TxWx,2013-10-23 02:50:00,
2013-10-22 21:55:00,43.8,35.0,30.13,NNE,32,1.2,3.7,72,0.00,,,0.00,TxWx,2013-10-23 02:55:00,
2013-10-22 22:00:00,43.6,36.0,30.14,East,100,1.2,4.3,72,0.00,,,0.00,TxWx,2013-10-23 03:00:00,
2013-10-22 22:05:00,43.4,35.0,30.14,NE,55,2.5,2.5,73,0.00,,,0.00,TxWx,2013-10-23 03:05:00,
2013-10-22 22:10:00,43.2,35.0,30.14,East,100,1.9,2.5,73,0.00,,,0.00,TxWx,2013-10-23 03:10:00,
2013-10-22 22:15:00,43.1,35.0,30.14,NNW,347,0.6,1.9,73,0.00,,,0.00,TxWx,2013-10-23 03:15:00,
2013-10-22 22:20:00,42.9,35.0,30.15,North,10,0.0,3.1,73,0.00,,,0.00,TxWx,2013-10-23 03:20:00,
2013-10-22 22:25:00,42.8,35.0,30.15,North,10,1.9,1.9,73,0.00,,,0.00,TxWx,2013-10-23 03:25:00,
2013-10-22 22:30:00,42.6,35.0,30.15,NE,55,1.2,1.9,73,0.00,,,0.00,TxWx,2013-10-23 03:30:00,
2013-10-22 22:35:00,42.5,35.0,30.15,NNW,347,0.6,1.2,73,0.00,,,0.00,TxWx,2013-10-23 03:35:00,
2013-10-22 22:40:00,42.4,34.0,30.16,NNW,347,0.6,0.6,74,0.00,,,0.00,TxWx,2013-10-23 03:40:00,
2013-10-22 22:45:00,42.2,34.0,30.16,NNE,32,1.2,1.2,74,0.00,,,0.00,TxWx,2013-10-23 03:45:00,
2013-10-22 22:50:00,42.1,34.0,30.16,NNE,32,0.6,3.1,75,0.00,,,0.00,TxWx,2013-10-23 03:50:00,
2013-10-22 22:55:00,42.0,35.0,30.16,ENE,77,0.0,0.6,75,0.00,,,0.00,TxWx,2013-10-23 03:55:00,
2013-10-22 23:00:00,41.9,35.0,30.16,NW,325,0.0,0.0,75,0.00,,,0.00,TxWx,2013-10-23 04:00:00,
2013-10-22 23:02:00,41.9,35.0,30.16,NNE,32,0.0,0.6,75,0.00,,,0.00,TxWx,2013-10-23 04:02:00,
2013-10-22 23:04:00,41.9,35.0,30.16,North,10,0.0,0.6,75,0.00,,,0.00,TxWx,2013-10-23 04:04:00,
2013-10-22 23:06:00,41.8,35.0,30.16,NNW,347,0.0,0.0,75,0.00,,,0.00,TxWx,2013-10-23 04:06:00,
2013-10-22 23:07:00,41.7,35.0,30.16,NE,55,0.0,0.6,75,0.00,,,0.00,TxWx,2013-10-23 04:07:00,
2013-10-22 23:10:00,41.6,35.0,30.16,NE,55,0.0,1.2,76,0.00,,,0.00,TxWx,2013-10-23 04:10:00,
2013-10-22 23:11:00,41.6,35.0,30.16,NE,55,0.0,0.0,76,0.00,,,0.00,TxWx,2013-10-23 04:11:00,
2013-10-22 23:16:00,41.5,34.0,30.17,NE,55,0.0,0.0,76,0.00,,,0.00,TxWx,2013-10-23 04:16:00,
2013-10-22 23:21:00,41.3,34.0,30.17,West,280,1.2,1.9,77,0.00,,,0.00,TxWx,2013-10-23 04:21:00,
2013-10-22 23:26:00,41.2,34.0,30.17,NE,55,0.0,0.0,77,0.00,,,0.00,TxWx,2013-10-23 04:26:00,
2013-10-22 23:31:00,41.1,34.0,30.17,NE,55,0.0,0.0,77,0.00,,,0.00,TxWx,2013-10-23 04:31:00,
2013-10-22 23:36:00,40.8,35.0,30.17,ENE,77,0.0,0.6,79,0.00,,,0.00,TxWx,2013-10-23 04:36:00,
2013-10-22 23:41:00,40.5,35.0,30.17,NNE,32,0.0,0.0,79,0.00,,,0.00,TxWx,2013-10-23 04:41:00,
2013-10-22 23:46:00,40.3,34.0,30.17,ENE,77,0.6,2.5,79,0.00,,,0.00,TxWx,2013-10-23 04:46:00,
2013-10-22 23:51:00,40.1,34.0,30.17,West,280,1.2,3.1,80,0.00,,,0.00,TxWx,2013-10-23 04:51:00,
2013-10-22 23:56:00,40.0,34.0,30.17,NE,55,0.0,0.6,80,0.00,,,0.00,TxWx,2013-10-23 04:56:00,